SL-8 R/B, 3230

Orbit data source: Space-Track

SL-8 R/B, 3230 is space debris in LEO originally from a launch on Tue, 07 May 1968 UTC launched from the Plesetsk Missile And Space Complex (PKMTR). Debris objects in space refer to the collection of defunct objects orbiting the Earth. Examples of debris include non-operational satellites, rocket bodies, and fragments generated from explosions, collisions, or faulty payload assembly.

Loading next visibility...
Identifier
3230, 1968-040B
Orbit
LEO
Country
Flag of CISCIS
Related business
Manufacturer
Yuzhnoe
Mission
Spacecraft
Bus & Motor
S3, Unknown motor
Mass
1,434 kg wet, 1,434 kg dry
Launch date (UTC)
1968-05-07 (58 years ago)
Launch vehicle
Unknown
Launch site
Plesetsk Missile And Space Complex (PKMTR)
Object type
Payload
Rocket body
Debris
Shape & HBR
Unknown
Radar Cross Section
Large (>1 m²)

Expand to show TLE details & history
Last TLE update: 11 hours ago

TLE from 11 hours ago
0 SL-8 R/B
1  3230U 68040B   26131.19211727  .00001321  00000-0  99119-4 0  9999
2  3230  74.0295 185.9382 0024968 346.0740  13.9757 15.03633412 99408
Epoch: 2026-05-11T04:36Z
TLE epoch observation values (Epoch: 2026-05-11T04:36:38.932Z)
Latitude
0.00002°
Longitude
-112.20839°
Altitude
541.595 km
Speed
7.601 km/s
True Right ascension
12h 23m 45s
True Declination
0° 00' 00"
Sunlit
Object was in full shadow at epoch
Visualization orbit readout
Latitude
Unknown
Longitude
Unknown
Altitude
Unknown
Speed
Unknown
Apparent Right ascension
Unknown
Apparent Declination
Unknown
Sunlit
N/A
Visualization observer readout
Local Sidereal Time
23:43:32
Azimuth
Unknown
Elevation
Unknown
Doppler factor
Unknown
Orbital elements
Apogee altitude
570.56 km
Perigee altitude
535.948 km
Semi-major axis
6,931.391 km
Eccentricity
0.0025
Inclination
74.0295°
RAAN
185.9382°
Arg. of periapsis
346.074°
True anomaly
14.04501°
Mean anomaly
13.9757°
Eccentric anomaly
14.01033°
Mean motion
3.76108 °/min
Orbital period
95.72 mins
BSTAR
0.000099119
Loading maneuver chart data...
Computing Atmospheric mass density...
Loading historical data...
Loading historical data...
Loading historical data...
Loading historical data...
Loading historical data...
Loading historical data...
Loading historical data...
Other satellites on launch #40 in the year 1968 (1968-05-07 UTC)

Documentation

Showing up to 5 results
|